• In Romania
  • List of Countries
  • For 7 days
  • Water Temperature
  • Satellite Maps
  • Weather Map
  • Weather Widgets
  • user-avatar
    Login

    Hourly Weather Kadzice

    Today, 21 October, Sunday

    Time Temperature Precipitation Wind Pressure Humidity
    00:00 +7°C° 0.1 mm 4 mps 747 mmHg 81%
    01:00 +6°C° 0.1 mm 4 mps 747 mmHg 83%
    02:00 +7°C° 0.2 mm 3 mps 747 mmHg 86%
    03:00 +7°C° 0.2 mm 3 mps 747 mmHg 88%
    04:00 +7°C° 0.2 mm 3 mps 747 mmHg 90%
    05:00 +7°C° 0.2 mm 3 mps 747 mmHg 90%
    06:00 +6°C° 0.2 mm 4 mps 747 mmHg 89%
    07:00 +7°C° 0.2 mm 4 mps 748 mmHg 88%
    08:00 +7°C° 0.2 mm 4 mps 748 mmHg 85%
    09:00 +7°C° 0.2 mm 4 mps 748 mmHg 82%
    10:00 +8°C° 0.2 mm 4 mps 749 mmHg 79%
    11:00 +10°C° 0 mm 4 mps 749 mmHg 73%
    12:00 +11°C° 0 mm 3 mps 749 mmHg 68%
    13:00 +12°C° 0 mm 3 mps 749 mmHg 62%
    14:00 +12°C° 0 mm 3 mps 749 mmHg 63%
    15:00 +12°C° 0 mm 2 mps 749 mmHg 65%
    16:00 +12°C° 0 mm 2 mps 749 mmHg 66%
    17:00 +10°C° 0 mm 2 mps 749 mmHg 70%
    18:00 +9°C° 0 mm 2 mps 749 mmHg 75%
    19:00 +8°C° 0 mm 2 mps 749 mmHg 79%
    20:00 +8°C° 0 mm 1 mps 750 mmHg 81%
    21:00 +8°C° 0 mm 1 mps 750 mmHg 83%
    22:00 +7°C° 0 mm 1 mps 750 mmHg 84%
    23:00 +7°C° 0 mm 1 mps 750 mmHg 85%

    Tomorrow, 22 October, Monday

    Time Temperature Precipitation Wind Pressure Humidity
    00:00 +6°C° 0 mm 0 mps 750 mmHg 86%
    01:00 +5°C° 0 mm 0 mps 749 mmHg 87%
    02:00 +5°C° 0 mm 0 mps 749 mmHg 87%
    03:00 +5°C° 0 mm 0 mps 749 mmHg 87%
    04:00 +5°C° 0 mm 0 mps 749 mmHg 87%
    05:00 +5°C° 0 mm 0 mps 749 mmHg 87%
    06:00 +5°C° 0 mm 0 mps 749 mmHg 86%
    07:00 +5°C° 0 mm 0 mps 749 mmHg 86%
    08:00 +7°C° 0 mm 0 mps 749 mmHg 77%
    09:00 +9°C° 0 mm 0 mps 749 mmHg 68%
    10:00 +11°C° 0 mm 0 mps 749 mmHg 60%
    11:00 +12°C° 0 mm 1 mps 748 mmHg 57%
    12:00 +13°C° 0 mm 1 mps 748 mmHg 53%
    13:00 +14°C° 0 mm 1 mps 747 mmHg 50%
    14:00 +14°C° 0 mm 1 mps 747 mmHg 53%
    15:00 +13°C° 0 mm 1 mps 747 mmHg 56%
    16:00 +12°C° 0 mm 1 mps 746 mmHg 58%
    17:00 +11°C° 0 mm 1 mps 746 mmHg 62%
    18:00 +10°C° 0 mm 1 mps 747 mmHg 67%
    19:00 +8°C° 0 mm 2 mps 747 mmHg 71%
    20:00 +8°C° 0 mm 2 mps 747 mmHg 72%
    21:00 +8°C° 0 mm 2 mps 747 mmHg 73%
    22:00 +8°C° 0 mm 3 mps 747 mmHg 75%
    23:00 +8°C° 0.4 mm 3 mps 747 mmHg 78%

    Day after tomorrow, 23 October, Tuesday

    Time Temperature Precipitation Wind Pressure Humidity
    00:00 +7°C° 0.4 mm 4 mps 747 mmHg 81%
    01:00 +7°C° 0.4 mm 4 mps 747 mmHg 84%
    02:00 +7°C° 0.2 mm 4 mps 747 mmHg 84%
    03:00 +6°C° 0.2 mm 4 mps 746 mmHg 84%
    04:00 +5°C° 0.2 mm 4 mps 746 mmHg 84%
    05:00 +5°C° 0 mm 4 mps 746 mmHg 86%
    06:00 +4°C° 0 mm 4 mps 746 mmHg 88%
    07:00 +4°C° 0 mm 3 mps 746 mmHg 90%
    08:00 +5°C° 0 mm 4 mps 746 mmHg 82%
    09:00 +6°C° 0 mm 4 mps 746 mmHg 75%
    10:00 +7°C° 0 mm 5 mps 745 mmHg 67%
    11:00 +8°C° 0 mm 5 mps 744 mmHg 64%
    12:00 +8°C° 0 mm 6 mps 743 mmHg 61%
    13:00 +8°C° 0 mm 6 mps 742 mmHg 58%
    14:00 +8°C° 0.3 mm 6 mps 741 mmHg 60%
    15:00 +8°C° 0.3 mm 6 mps 740 mmHg 62%
    16:00 +6°C° 0.3 mm 7 mps 739 mmHg 64%
    17:00 +6°C° 0.4 mm 7 mps 738 mmHg 66%
    18:00 +6°C° 0.4 mm 8 mps 737 mmHg 68%
    19:00 +6°C° 0.4 mm 9 mps 735 mmHg 71%
    20:00 +6°C° 0.5 mm 10 mps 734 mmHg 73%
    21:00 +7°C° 0.5 mm 10 mps 733 mmHg 75%
    22:00 +7°C° 0.5 mm 11 mps 732 mmHg 77%
    23:00 +7°C° 1.4 mm 10 mps 731 mmHg 77%

    24 October, Wednesday

    Time Temperature Precipitation Wind Pressure Humidity
    00:00 +8°C° 1.4 mm 10 mps 731 mmHg 78%
    01:00 +8°C° 1.4 mm 10 mps 730 mmHg 79%
    02:00 +7°C° 0.3 mm 10 mps 730 mmHg 76%
    03:00 +6°C° 0.3 mm 10 mps 730 mmHg 74%
    04:00 +6°C° 0.3 mm 9 mps 730 mmHg 71%
    05:00 +5°C° 0.3 mm 9 mps 731 mmHg 69%
    06:00 +5°C° 0.3 mm 9 mps 731 mmHg 66%
    07:00 +3°C° 0.3 mm 10 mps 732 mmHg 63%
    08:00 +3°C° 0.1 mm 10 mps 732 mmHg 58%
    09:00 +5°C° 0.1 mm 10 mps 733 mmHg 53%
    10:00 +4°C° 0.1 mm 11 mps 733 mmHg 47%
    11:00 +5°C° 0 mm 10 mps 733 mmHg 46%
    12:00 +5°C° 0 mm 10 mps 733 mmHg 44%
    13:00 +6°C° 0 mm 10 mps 734 mmHg 42%
    14:00 +5°C° 0 mm 9 mps 734 mmHg 43%
    15:00 +5°C° 0 mm 9 mps 734 mmHg 45%
    16:00 +5°C° 0 mm 8 mps 735 mmHg 46%
    17:00 +4°C° 0 mm 7 mps 735 mmHg 48%
    18:00 +3°C° 0 mm 7 mps 735 mmHg 51%
    19:00 +3°C° 0 mm 6 mps 736 mmHg 53%
    20:00 +3°C° 0 mm 6 mps 736 mmHg 55%
    21:00 +2°C° 0 mm 6 mps 736 mmHg 56%
    22:00 +2°C° 0 mm 7 mps 737 mmHg 58%
    23:00 +2°C° 0 mm 7 mps 737 mmHg 61%

    25 October, Thursday

    Time Temperature Precipitation Wind Pressure Humidity
    00:00 +2°C° 0 mm 6 mps 737 mmHg 64%
    01:00 +1°C° 0 mm 6 mps 737 mmHg 67%
    02:00 +1°C° 0 mm 6 mps 737 mmHg 69%
    03:00 +1°C° 0 mm 6 mps 738 mmHg 71%
    04:00 +1°C° 0 mm 6 mps 738 mmHg 74%
    05:00 +1°C° 0 mm 6 mps 738 mmHg 74%
    06:00 +2°C° 0 mm 6 mps 738 mmHg 75%
    07:00 +2°C° 0 mm 5 mps 738 mmHg 75%
    08:00 +3°C° 0.2 mm 5 mps 737 mmHg 76%
    09:00 +3°C° 0.2 mm 5 mps 737 mmHg 76%
    10:00 +5°C° 0.2 mm 5 mps 737 mmHg 77%
    11:00 +5°C° 0.6 mm 6 mps 736 mmHg 80%
    12:00 +7°C° 0.6 mm 6 mps 736 mmHg 84%
    13:00 +8°C° 0.6 mm 7 mps 735 mmHg 87%
    14:00 +8°C° 0.5 mm 7 mps 735 mmHg 86%
    15:00 +8°C° 0.5 mm 7 mps 735 mmHg 85%
    16:00 +9°C° 0.5 mm 8 mps 735 mmHg 84%
    17:00 +9°C° 0.1 mm 7 mps 735 mmHg 84%
    18:00 +8°C° 0.1 mm 7 mps 736 mmHg 84%
    19:00 +8°C° 0.1 mm 7 mps 736 mmHg 84%
    20:00 +8°C° 0.1 mm 7 mps 736 mmHg 85%
    21:00 +8°C° 0.1 mm 7 mps 736 mmHg 85%
    22:00 +8°C° 0.1 mm 7 mps 737 mmHg 85%
    23:00 +8°C° 0.1 mm 6 mps 737 mmHg 86%

    26 October, Friday

    Time Temperature Precipitation Wind Pressure Humidity
    00:00 +8°C° 0.1 mm 6 mps 737 mmHg 86%
    01:00 +8°C° 0.1 mm 6 mps 737 mmHg 87%
    02:00 +8°C° 0.1 mm 6 mps 737 mmHg 87%
    03:00 +8°C° 0.1 mm 6 mps 737 mmHg 87%
    04:00 +8°C° 0.1 mm 6 mps 737 mmHg 87%
    05:00 +8°C° 0 mm 5 mps 737 mmHg 87%
    06:00 +8°C° 0 mm 5 mps 737 mmHg 86%
    07:00 +8°C° 0 mm 5 mps 737 mmHg 86%
    08:00 +8°C° 0 mm 5 mps 737 mmHg 81%
    09:00 +9°C° 0 mm 5 mps 737 mmHg 77%
    10:00 +10°C° 0 mm 5 mps 737 mmHg 72%
    11:00 +12°C° 0 mm 5 mps 737 mmHg 68%
    12:00 +12°C° 0 mm 5 mps 736 mmHg 65%
    13:00 +13°C° 0 mm 5 mps 736 mmHg 61%
    14:00 +12°C° 0 mm 5 mps 735 mmHg 64%
    15:00 +12°C° 0 mm 4 mps 735 mmHg 68%
    16:00 +11°C° 0 mm 3 mps 735 mmHg 71%
    17:00 +10°C° 0 mm 3 mps 735 mmHg 74%
    18:00 +9°C° 0 mm 3 mps 734 mmHg 78%
    19:00 +9°C° 0 mm 2 mps 734 mmHg 82%
    20:00 +8°C° 0 mm 2 mps 734 mmHg 83%
    21:00 +8°C° 0 mm 2 mps 733 mmHg 84%
    22:00 +8°C° 0 mm 2 mps 733 mmHg 85%
    23:00 +8°C° 0 mm 2 mps 733 mmHg 86%
    Show more